Time,TemperatureF,DewpointF,PressureIn,WindDirection,WindDirectionDegrees,WindSpeedMPH,WindSpeedGustMPH,Humidity,HourlyPrecipIn,Conditions,Clouds,dailyrainin,SolarRadiationWatts/m^2,SoftwareType,DateUTC
2013-04-15 00:00:00,35.4,28.6,30.19,North,0,0.0,0.0,76,0.00,CLR,,0.00,0.0,WeatherDisplay:10.37,2013-04-15 04:00:00,
2013-04-15 00:05:00,35.3,28.8,30.19,North,0,0.0,0.0,77,0.00,CLR,,0.00,0.0,WeatherDisplay:10.37,2013-04-15 04:05:00,
2013-04-15 00:10:00,35.1,28.6,30.19,North,0,0.0,0.0,77,0.00,CLR,,0.00,0.0,WeatherDisplay:10.37,2013-04-15 04:10:00,
2013-04-15 00:15:00,34.9,28.4,30.19,North,0,0.0,0.0,77,0.00,CLR,,0.00,0.0,WeatherDisplay:10.37,2013-04-15 04:15:00,
2013-04-15 00:20:00,34.7,28.2,30.19,North,0,0.0,0.0,77,0.00,CLR,,0.00,0.0,WeatherDisplay:10.37,2013-04-15 04:20:00,
2013-04-15 00:25:00,34.6,28.1,30.19,North,0,0.0,0.0,77,0.00,CLR,,0.00,0.0,WeatherDisplay:10.37,2013-04-15 04:25:00,
2013-04-15 00:30:00,34.5,28.3,30.19,North,0,0.0,0.0,78,0.00,CLR,,0.00,0.0,WeatherDisplay:10.37,2013-04-15 04:30:00,
2013-04-15 00:35:00,34.3,28.2,30.20,North,0,0.0,0.0,78,0.00,CLR,,0.00,0.0,WeatherDisplay:10.37,2013-04-15 04:35:00,
2013-04-15 00:40:00,34.2,28.1,30.20,North,0,0.0,0.0,78,0.00,CLR,,0.00,0.0,WeatherDisplay:10.37,2013-04-15 04:40:00,
2013-04-15 00:45:00,34.2,28.1,30.19,North,0,0.0,0.0,78,0.00,CLR,,0.00,0.0,WeatherDisplay:10.37,2013-04-15 04:45:00,
2013-04-15 00:50:00,34.1,28.3,30.20,North,0,0.0,0.0,79,0.00,CLR,,0.00,0.0,WeatherDisplay:10.37,2013-04-15 04:50:00,
2013-04-15 00:55:00,34.0,28.2,30.20,North,0,0.0,0.0,79,0.00,CLR,,0.00,0.0,WeatherDisplay:10.37,2013-04-15 04:55:00,
2013-04-15 01:00:00,33.9,28.1,30.20,North,0,0.0,0.0,79,0.00,CLR,,0.00,0.0,WeatherDisplay:10.37,2013-04-15 05:00:00,
2013-04-15 01:05:00,33.9,28.1,30.20,North,0,0.0,0.0,79,0.00,CLR,,0.00,0.0,WeatherDisplay:10.37,2013-04-15 05:05:00,
2013-04-15 01:10:00,33.8,28.0,30.20,North,0,0.0,0.0,79,0.00,CLR,,0.00,0.0,WeatherDisplay:10.37,2013-04-15 05:10:00,
2013-04-15 01:15:00,33.7,27.9,30.20,North,0,0.0,0.0,79,0.00,CLR,,0.00,0.0,WeatherDisplay:10.37,2013-04-15 05:15:00,
2013-04-15 01:20:00,33.7,28.2,30.20,North,0,0.0,0.0,80,0.00,CLR,,0.00,0.0,WeatherDisplay:10.37,2013-04-15 05:20:00,
2013-04-15 01:25:00,33.6,28.1,30.20,North,0,0.0,0.0,80,0.00,CLR,,0.00,0.0,WeatherDisplay:10.37,2013-04-15 05:25:00,
2013-04-15 01:30:00,33.5,28.0,30.20,North,0,0.0,0.0,80,0.00,CLR,,0.00,0.0,WeatherDisplay:10.37,2013-04-15 05:30:00,
2013-04-15 01:35:00,33.5,28.0,30.20,North,0,0.0,0.0,80,0.00,CLR,,0.00,0.0,WeatherDisplay:10.37,2013-04-15 05:35:00,
2013-04-15 01:40:00,33.5,28.0,30.20,North,0,0.0,0.0,80,0.00,CLR,,0.00,0.0,WeatherDisplay:10.37,2013-04-15 05:40:00,
2013-04-15 01:45:00,33.4,27.9,30.20,North,0,0.0,0.0,80,0.00,CLR,,0.00,0.0,WeatherDisplay:10.37,2013-04-15 05:45:00,
2013-04-15 01:50:00,33.3,27.8,30.21,North,0,0.0,0.0,80,0.00,CLR,,0.00,0.0,WeatherDisplay:10.37,2013-04-15 05:50:00,
2013-04-15 01:55:00,33.2,27.7,30.20,North,0,0.0,0.0,80,0.00,CLR,,0.00,0.0,WeatherDisplay:10.37,2013-04-15 05:55:00,
2013-04-15 02:00:00,33.2,27.7,30.20,North,0,0.0,0.0,80,0.00,CLR,,0.00,0.0,WeatherDisplay:10.37,2013-04-15 06:00:00,
2013-04-15 02:05:00,33.1,27.9,30.20,North,0,0.0,0.0,81,0.00,CLR,,0.00,0.0,WeatherDisplay:10.37,2013-04-15 06:05:00,
2013-04-15 02:10:00,33.0,27.8,30.20,North,0,0.0,0.0,81,0.00,CLR,,0.00,0.0,WeatherDisplay:10.37,2013-04-15 06:10:00,
2013-04-15 02:15:00,32.9,27.7,30.20,North,0,0.0,0.0,81,0.00,CLR,,0.00,0.0,WeatherDisplay:10.37,2013-04-15 06:15:00,
2013-04-15 02:20:00,32.8,27.6,30.21,North,0,0.0,0.0,81,0.00,CLR,,0.00,0.0,WeatherDisplay:10.37,2013-04-15 06:20:00,
2013-04-15 02:25:00,32.7,27.5,30.20,North,0,0.0,0.0,81,0.00,CLR,,0.00,0.0,WeatherDisplay:10.37,2013-04-15 06:25:00,
2013-04-15 02:30:00,32.7,27.8,30.20,North,0,0.0,0.0,82,0.00,CLR,,0.00,0.0,WeatherDisplay:10.37,2013-04-15 06:30:00,
2013-04-15 02:35:00,32.6,27.7,30.21,North,0,0.0,0.0,82,0.00,CLR,,0.00,0.0,WeatherDisplay:10.37,2013-04-15 06:35:00,
2013-04-15 02:40:00,32.6,27.7,30.21,North,0,0.0,0.0,82,0.00,CLR,,0.00,0.0,WeatherDisplay:10.37,2013-04-15 06:40:00,
2013-04-15 02:45:00,32.5,27.6,30.21,North,0,0.0,0.0,82,0.00,CLR,,0.00,0.0,WeatherDisplay:10.37,2013-04-15 06:45:00,
2013-04-15 02:50:00,32.5,27.6,30.21,North,0,0.0,0.0,82,0.00,CLR,,0.00,0.0,WeatherDisplay:10.37,2013-04-15 06:50:00,
2013-04-15 02:55:00,32.5,27.6,30.21,North,0,0.0,0.0,82,0.00,CLR,,0.00,0.0,WeatherDisplay:10.37,2013-04-15 06:55:00,
2013-04-15 03:00:00,32.4,27.8,30.20,North,0,0.0,0.0,83,0.00,CLR,,0.00,0.0,WeatherDisplay:10.37,2013-04-15 07:00:00,
2013-04-15 03:05:00,32.4,27.8,30.20,North,0,0.0,0.0,83,0.00,CLR,,0.00,0.0,WeatherDisplay:10.37,2013-04-15 07:05:00,
2013-04-15 03:41:00,32.4,27.8,30.21,North,0,0.0,0.0,83,0.00,CLR,,0.00,0.0,WeatherDisplay:10.37,2013-04-15 07:41:00,
2013-04-15 03:42:00,32.4,27.8,30.21,North,0,0.0,0.0,83,0.00,CLR,,0.00,0.0,WeatherDisplay:10.37,2013-04-15 07:42:00,
2013-04-15 03:47:00,32.4,27.8,30.22,North,0,0.0,0.0,83,0.00,CLR,,0.00,0.0,WeatherDisplay:10.37,2013-04-15 07:47:00,
2013-04-15 03:48:00,32.4,27.8,30.22,North,0,0.0,0.0,83,0.00,CLR,,0.00,0.0,WeatherDisplay:10.37,2013-04-15 07:48:00,
2013-04-15 03:50:00,32.4,27.8,30.22,North,0,0.0,0.0,83,0.00,CLR,,0.00,0.0,WeatherDisplay:10.37,2013-04-15 07:50:00,
2013-04-15 03:53:00,32.4,27.8,30.22,North,0,0.0,0.0,83,0.00,CLR,,0.00,0.0,WeatherDisplay:10.37,2013-04-15 07:53:00,
2013-04-15 03:58:00,32.3,27.7,30.22,North,0,0.0,0.0,83,0.00,CLR,,0.00,0.0,WeatherDisplay:10.37,2013-04-15 07:58:00,
2013-04-15 04:03:00,32.3,28.0,30.22,North,0,0.0,0.0,84,0.00,CLR,,0.00,0.0,WeatherDisplay:10.37,2013-04-15 08:03:00,
2013-04-15 04:09:00,32.3,28.0,30.22,North,0,0.0,0.0,84,0.00,CLR,,0.00,0.0,WeatherDisplay:10.37,2013-04-15 08:09:00,
2013-04-15 04:14:00,32.2,27.9,30.23,North,0,0.0,0.0,84,0.00,CLR,,0.00,0.0,WeatherDisplay:10.37,2013-04-15 08:14:00,
2013-04-15 04:19:00,32.2,27.9,30.23,North,0,0.0,0.0,84,0.00,CLR,,0.00,0.0,WeatherDisplay:10.37,2013-04-15 08:19:00,
2013-04-15 04:24:00,32.2,27.9,30.23,North,0,0.0,0.0,84,0.00,CLR,,0.00,0.0,WeatherDisplay:10.37,2013-04-15 08:24:00,
2013-04-15 04:29:00,32.2,27.9,30.23,North,0,0.0,0.0,84,0.00,CLR,,0.00,0.0,WeatherDisplay:10.37,2013-04-15 08:29:00,
2013-04-15 04:34:00,32.2,27.9,30.23,North,0,0.0,0.0,84,0.00,CLR,,0.00,0.0,WeatherDisplay:10.37,2013-04-15 08:34:00,
2013-04-15 04:37:00,32.1,27.8,30.23,North,0,0.0,0.0,84,0.00,CLR,,0.00,0.0,WeatherDisplay:10.37,2013-04-15 08:37:00,
2013-04-15 04:40:00,32.1,27.8,30.23,North,0,0.0,0.0,84,0.00,CLR,,0.00,0.0,WeatherDisplay:10.37,2013-04-15 08:40:00,
2013-04-15 04:45:00,32.1,28.1,30.24,North,0,0.0,0.0,85,0.00,CLR,,0.00,0.0,WeatherDisplay:10.37,2013-04-15 08:45:00,
2013-04-15 04:50:00,32.2,28.2,30.23,North,0,0.0,0.0,85,0.00,CLR,,0.00,0.0,WeatherDisplay:10.37,2013-04-15 08:50:00,
2013-04-15 04:55:00,32.2,28.2,30.24,North,0,0.0,0.0,85,0.00,CLR,,0.00,0.0,WeatherDisplay:10.37,2013-04-15 08:55:00,
2013-04-15 05:00:00,32.2,28.2,30.24,North,0,0.0,0.0,85,0.00,CLR,,0.00,0.0,WeatherDisplay:10.37,2013-04-15 09:00:00,
2013-04-15 05:05:00,32.2,28.2,30.24,North,0,0.0,0.0,85,0.00,CLR,,0.00,0.0,WeatherDisplay:10.37,2013-04-15 09:05:00,
2013-04-15 05:10:00,32.2,28.2,30.24,North,0,0.0,0.0,85,0.00,CLR,,0.00,0.0,WeatherDisplay:10.37,2013-04-15 09:10:00,
2013-04-15 05:15:00,32.2,28.2,30.24,North,0,0.0,0.0,85,0.00,CLR,,0.00,0.0,WeatherDisplay:10.37,2013-04-15 09:15:00,
2013-04-15 05:20:00,32.2,28.2,30.24,North,0,0.0,0.0,85,0.00,CLR,,0.00,0.0,WeatherDisplay:10.37,2013-04-15 09:20:00,
2013-04-15 05:25:00,32.2,28.2,30.25,North,0,0.0,0.0,85,0.00,CLR,,0.00,0.0,WeatherDisplay:10.37,2013-04-15 09:25:00,
2013-04-15 05:30:00,32.1,28.1,30.25,North,0,0.0,0.0,85,0.00,CLR,,0.00,0.0,WeatherDisplay:10.37,2013-04-15 09:30:00,
2013-04-15 05:35:00,32.1,28.1,30.25,North,0,0.0,0.0,85,0.00,CLR,,0.00,0.0,WeatherDisplay:10.37,2013-04-15 09:35:00,
2013-04-15 05:40:00,32.2,28.2,30.25,North,0,0.0,0.0,85,0.00,CLR,,0.00,0.0,WeatherDisplay:10.37,2013-04-15 09:40:00,
2013-04-15 05:45:00,32.1,28.1,30.26,North,0,0.0,0.0,85,0.00,CLR,,0.00,0.0,WeatherDisplay:10.37,2013-04-15 09:45:00,
2013-04-15 05:50:00,32.1,28.1,30.26,North,0,0.0,0.0,85,0.00,CLR,,0.00,0.0,WeatherDisplay:10.37,2013-04-15 09:50:00,
2013-04-15 05:55:00,32.1,28.1,30.27,North,0,0.0,0.0,85,0.00,CLR,,0.00,0.0,WeatherDisplay:10.37,2013-04-15 09:55:00,
2013-04-15 06:00:00,32.1,28.1,30.27,North,0,0.0,0.0,85,0.00,OVC,,0.00,5.0,WeatherDisplay:10.37,2013-04-15 10:00:00,
2013-04-15 06:05:00,32.1,28.1,30.27,North,0,0.0,0.0,85,0.00,OVC,,0.00,0.0,WeatherDisplay:10.37,2013-04-15 10:05:00,
2013-04-15 06:10:00,32.1,28.1,30.27,North,0,0.0,0.0,85,0.00,OVC,,0.00,5.0,WeatherDisplay:10.37,2013-04-15 10:10:00,
2013-04-15 06:15:00,32.1,28.1,30.27,North,0,0.0,0.0,85,0.00,CLR,,0.00,7.0,WeatherDisplay:10.37,2013-04-15 10:15:00,
2013-04-15 06:20:00,32.1,28.1,30.28,North,0,0.0,0.0,85,0.00,SCT,,0.00,9.0,WeatherDisplay:10.37,2013-04-15 10:20:00,
2013-04-15 06:25:00,32.2,28.2,30.28,North,0,0.0,0.0,85,0.00,BKN,,0.00,12.0,WeatherDisplay:10.37,2013-04-15 10:25:00,
2013-04-15 06:30:00,32.2,28.2,30.28,North,0,0.0,0.0,85,0.00,BKN,,0.00,16.0,WeatherDisplay:10.37,2013-04-15 10:30:00,
2013-04-15 06:35:00,32.3,28.3,30.29,North,0,0.0,0.0,85,0.00,BKN,,0.00,21.0,WeatherDisplay:10.37,2013-04-15 10:35:00,
2013-04-15 06:40:00,32.3,28.3,30.30,North,0,0.0,0.0,85,0.00,BKN,,0.00,28.0,WeatherDisplay:10.37,2013-04-15 10:40:00,
2013-04-15 06:45:00,32.4,28.4,30.30,North,0,0.0,0.0,85,0.00,BKN,,0.00,33.0,WeatherDisplay:10.37,2013-04-15 10:45:00,
2013-04-15 06:50:00,32.6,28.6,30.31,North,0,0.0,0.0,85,0.00,BKN,,0.00,39.0,WeatherDisplay:10.37,2013-04-15 10:50:00,
2013-04-15 06:55:00,32.7,28.7,30.31,North,0,0.0,0.0,85,0.00,BKN,,0.00,46.0,WeatherDisplay:10.37,2013-04-15 10:55:00,
2013-04-15 07:00:00,32.9,28.9,30.31,North,0,0.0,0.0,85,0.00,BKN,,0.00,51.0,WeatherDisplay:10.37,2013-04-15 11:00:00,
2013-04-15 07:05:00,33.1,29.1,30.31,North,0,0.0,0.0,85,0.00,BKN,,0.00,56.0,WeatherDisplay:10.37,2013-04-15 11:05:00,
2013-04-15 07:11:00,33.3,29.6,30.32,North,0,0.0,0.0,86,0.00,BKN,,0.00,60.0,WeatherDisplay:10.37,2013-04-15 11:11:00,
2013-04-15 07:17:00,33.6,29.9,30.32,North,0,0.0,0.0,86,0.00,BKN,,0.00,63.0,WeatherDisplay:10.37,2013-04-15 11:17:00,
2013-04-15 07:22:00,33.9,29.9,30.33,North,0,0.0,0.0,85,0.00,BKN,,0.00,70.0,WeatherDisplay:10.37,2013-04-15 11:22:00,
2013-04-15 07:27:00,34.2,30.4,30.33,North,0,0.0,0.0,86,0.00,BKN,,0.00,72.0,WeatherDisplay:10.37,2013-04-15 11:27:00,
2013-04-15 07:32:00,34.5,30.5,30.33,North,0,0.0,0.0,85,0.00,BKN,,0.00,77.0,WeatherDisplay:10.37,2013-04-15 11:32:00,
2013-04-15 07:37:00,34.8,30.8,30.33,North,0,0.0,0.0,85,0.00,BKN,,0.00,98.0,WeatherDisplay:10.37,2013-04-15 11:37:00,
2013-04-15 07:42:00,35.1,31.0,30.33,North,0,0.0,0.0,85,0.00,BKN,,0.00,91.0,WeatherDisplay:10.37,2013-04-15 11:42:00,
2013-04-15 07:47:00,35.6,31.5,30.33,North,0,0.0,0.0,85,0.00,BKN,,0.00,116.0,WeatherDisplay:10.37,2013-04-15 11:47:00,
2013-04-15 07:52:00,36.1,31.7,30.33,North,0,0.0,0.0,84,0.00,BKN,,0.00,120.0,WeatherDisplay:10.37,2013-04-15 11:52:00,
2013-04-15 07:57:00,36.7,32.0,30.33,North,0,0.0,0.0,83,0.00,BKN,,0.00,141.0,WeatherDisplay:10.37,2013-04-15 11:57:00,
2013-04-15 08:02:00,37.3,32.6,30.34,North,0,0.0,0.0,83,0.00,BKN,,0.00,139.0,WeatherDisplay:10.37,2013-04-15 12:02:00,
2013-04-15 08:07:00,37.9,32.6,30.33,North,0,0.0,0.0,81,0.00,SCT,,0.00,160.0,WeatherDisplay:10.37,2013-04-15 12:07:00,
2013-04-15 08:12:00,38.6,33.0,30.33,North,0,0.0,0.0,80,0.00,SCT,,0.00,176.0,WeatherDisplay:10.37,2013-04-15 12:12:00,
2013-04-15 08:17:00,39.3,33.3,30.33,North,0,0.0,0.0,79,0.00,SCT,,0.00,160.0,WeatherDisplay:10.37,2013-04-15 12:17:00,
2013-04-15 08:23:00,39.9,33.6,30.34,North,0,0.0,0.0,78,0.00,BKN,,0.00,165.0,WeatherDisplay:10.37,2013-04-15 12:23:00,
2013-04-15 08:28:00,40.5,33.5,30.34,North,0,0.0,0.0,76,0.00,BKN,,0.00,186.0,WeatherDisplay:10.37,2013-04-15 12:28:00,
2013-04-15 08:33:00,41.1,33.8,30.34,North,0,0.0,0.0,75,0.00,BKN,,0.00,169.0,WeatherDisplay:10.37,2013-04-15 12:33:00,
2013-04-15 08:38:00,41.7,34.0,30.34,North,0,0.0,0.0,74,0.00,BKN,,0.00,195.0,WeatherDisplay:10.37,2013-04-15 12:38:00,
2013-04-15 08:43:00,42.3,34.3,30.34,North,0,0.0,0.0,73,0.00,BKN,,0.00,211.0,WeatherDisplay:10.37,2013-04-15 12:43:00,
2013-04-15 08:48:00,42.9,34.5,30.34,North,0,0.0,0.0,72,0.00,BKN,,0.00,234.0,WeatherDisplay:10.37,2013-04-15 12:48:00,
2013-04-15 08:53:00,43.5,34.7,30.34,North,0,0.0,0.0,71,0.00,SCT,,0.00,269.0,WeatherDisplay:10.37,2013-04-15 12:53:00,
2013-04-15 08:58:00,44.0,34.5,30.34,North,0,0.0,0.0,69,0.00,SCT,,0.00,244.0,WeatherDisplay:10.37,2013-04-15 12:58:00,
2013-04-15 09:03:00,44.4,34.9,30.34,North,0,0.0,0.0,69,0.00,SCT,,0.00,283.0,WeatherDisplay:10.37,2013-04-15 13:03:00,
2013-04-15 09:08:00,44.9,34.6,30.34,North,0,0.0,0.0,67,0.00,SCT,,0.00,311.0,WeatherDisplay:10.37,2013-04-15 13:08:00,
2013-04-15 09:13:00,45.4,34.7,30.34,North,0,0.0,0.0,66,0.00,SCT,,0.00,369.0,WeatherDisplay:10.37,2013-04-15 13:13:00,
2013-04-15 09:18:00,45.7,34.6,30.34,North,0,0.0,0.0,65,0.00,SCT,,0.00,374.0,WeatherDisplay:10.37,2013-04-15 13:18:00,
2013-04-15 09:23:00,46.1,34.6,30.34,North,0,0.0,0.0,64,0.00,SCT,,0.00,378.0,WeatherDisplay:10.37,2013-04-15 13:23:00,
2013-04-15 09:28:00,46.5,35.4,30.35,North,0,0.0,0.0,65,0.00,SCT,,0.00,359.0,WeatherDisplay:10.37,2013-04-15 13:28:00,
2013-04-15 09:33:00,46.9,35.0,30.35,North,0,0.0,0.0,63,0.00,SCT,,0.00,431.0,WeatherDisplay:10.37,2013-04-15 13:33:00,
2013-04-15 09:39:00,47.1,34.7,30.35,North,0,0.0,0.0,62,0.00,FEW,,0.00,446.0,WeatherDisplay:10.37,2013-04-15 13:39:00,
2013-04-15 09:44:00,47.4,35.0,30.35,North,0,0.0,0.0,62,0.00,SCT,,0.00,455.0,WeatherDisplay:10.37,2013-04-15 13:44:00,
2013-04-15 09:49:00,47.8,35.0,30.36,North,0,0.0,0.0,61,0.00,FEW,,0.00,489.0,WeatherDisplay:10.37,2013-04-15 13:49:00,
2013-04-15 09:54:00,48.2,35.0,30.35,North,0,0.0,0.0,60,0.00,FEW,,0.00,483.0,WeatherDisplay:10.37,2013-04-15 13:54:00,
2013-04-15 09:59:00,48.7,35.4,30.35,North,0,0.0,0.0,60,0.00,FEW,,0.00,526.0,WeatherDisplay:10.37,2013-04-15 13:59:00,
2013-04-15 10:04:00,49.2,35.0,30.36,North,0,0.0,0.0,58,0.00,FEW,,0.00,401.0,WeatherDisplay:10.37,2013-04-15 14:04:00,
2013-04-15 10:09:00,49.6,35.4,30.35,North,0,0.0,0.0,58,0.00,SCT,,0.00,454.0,WeatherDisplay:10.37,2013-04-15 14:09:00,
2013-04-15 10:14:00,50.2,35.1,30.35,North,0,0.0,0.0,56,0.00,SCT,,0.00,596.0,WeatherDisplay:10.37,2013-04-15 14:14:00,
2013-04-15 10:19:00,50.9,36.2,30.36,North,0,0.0,0.0,57,0.00,FEW,,0.00,608.0,WeatherDisplay:10.37,2013-04-15 14:19:00,
2013-04-15 10:24:00,51.5,35.9,30.36,North,0,0.0,0.0,55,0.00,FEW,,0.00,594.0,WeatherDisplay:10.37,2013-04-15 14:24:00,
2013-04-15 10:29:00,51.6,35.0,30.36,North,0,0.0,0.0,53,0.00,FEW,,0.00,276.0,WeatherDisplay:10.37,2013-04-15 14:29:00,
2013-04-15 10:34:00,51.3,35.2,30.35,North,0,0.0,0.0,54,0.00,BKN,,0.00,214.0,WeatherDisplay:10.37,2013-04-15 14:34:00,
2013-04-15 10:39:00,51.1,34.5,30.36,North,0,0.0,0.0,53,0.00,BKN,,0.00,244.0,WeatherDisplay:10.37,2013-04-15 14:39:00,
2013-04-15 10:44:00,50.5,34.5,30.35,North,0,0.0,0.0,54,0.00,BKN,,0.00,220.0,WeatherDisplay:10.37,2013-04-15 14:44:00,
2013-04-15 10:49:00,50.0,34.5,30.35,North,0,0.0,0.0,55,0.00,BKN,,0.00,246.0,WeatherDisplay:10.37,2013-04-15 14:49:00,
2013-04-15 10:54:00,49.8,34.3,30.35,North,0,0.0,0.0,55,0.00,BKN,,0.00,306.0,WeatherDisplay:10.37,2013-04-15 14:54:00,
2013-04-15 10:59:00,49.9,34.8,30.35,North,0,0.0,0.0,56,0.00,BKN,,0.00,350.0,WeatherDisplay:10.37,2013-04-15 14:59:00,
2013-04-15 11:04:00,50.0,34.9,30.35,North,0,0.0,0.0,56,0.00,BKN,,0.00,494.0,WeatherDisplay:10.37,2013-04-15 15:04:00,
2013-04-15 11:09:00,50.3,34.7,30.35,North,0,0.0,0.0,55,0.00,SCT,,0.00,552.0,WeatherDisplay:10.37,2013-04-15 15:09:00,
2013-04-15 11:15:00,51.0,35.8,30.35,North,0,0.0,0.0,56,0.00,SCT,,0.00,538.0,WeatherDisplay:10.37,2013-04-15 15:15:00,
2013-04-15 11:20:00,51.8,35.7,30.35,North,0,0.0,0.0,54,0.00,FEW,,0.00,768.0,WeatherDisplay:10.37,2013-04-15 15:20:00,
2013-04-15 11:25:00,51.6,34.5,30.35,North,0,0.0,0.0,52,0.00,FEW,,0.00,693.0,WeatherDisplay:10.37,2013-04-15 15:25:00,
2013-04-15 11:30:00,51.5,34.4,30.35,North,0,0.0,0.0,52,0.00,FEW,,0.00,752.0,WeatherDisplay:10.37,2013-04-15 15:30:00,
2013-04-15 11:35:00,52.0,34.9,30.34,North,0,0.0,0.0,52,0.00,FEW,,0.00,763.0,WeatherDisplay:10.37,2013-04-15 15:35:00,
2013-04-15 11:40:00,51.7,33.6,30.34,North,0,0.0,0.0,50,0.00,FEW,,0.00,619.0,WeatherDisplay:10.37,2013-04-15 15:40:00,
2013-04-15 11:45:00,51.9,34.3,30.34,North,0,0.0,0.0,51,0.00,SCT,,0.00,696.0,WeatherDisplay:10.37,2013-04-15 15:45:00,
2013-04-15 11:50:00,51.6,33.6,30.34,North,0,0.0,0.0,50,0.00,SCT,,0.00,478.0,WeatherDisplay:10.37,2013-04-15 15:50:00,
2013-04-15 11:55:00,52.9,34.8,30.34,North,0,0.0,0.0,50,0.00,SCT,,0.00,745.0,WeatherDisplay:10.37,2013-04-15 15:55:00,
2013-04-15 12:00:00,52.9,34.2,30.33,North,0,0.0,0.0,49,0.00,FEW,,0.00,791.0,WeatherDisplay:10.37,2013-04-15 16:00:00,
2013-04-15 12:05:00,52.8,34.2,30.33,North,0,0.0,0.0,49,0.00,FEW,,0.00,721.0,WeatherDisplay:10.37,2013-04-15 16:05:00,
2013-04-15 12:10:00,53.0,34.8,30.33,North,0,0.0,0.0,50,0.00,FEW,,0.00,707.0,WeatherDisplay:10.37,2013-04-15 16:10:00,
2013-04-15 12:15:00,53.3,35.1,30.33,North,0,0.0,0.0,50,0.00,FEW,,0.00,728.0,WeatherDisplay:10.37,2013-04-15 16:15:00,
2013-04-15 12:20:00,54.1,34.3,30.33,North,0,0.0,0.0,47,0.00,FEW,,0.00,773.0,WeatherDisplay:10.37,2013-04-15 16:20:00,
2013-04-15 12:25:00,54.8,35.5,30.33,North,0,0.0,0.0,48,0.00,FEW,,0.00,780.0,WeatherDisplay:10.37,2013-04-15 16:25:00,
2013-04-15 12:30:00,55.7,35.2,30.32,North,0,0.0,0.0,46,0.00,FEW,,0.00,779.0,WeatherDisplay:10.37,2013-04-15 16:30:00,
2013-04-15 12:35:00,55.4,34.9,30.32,North,0,0.0,0.0,46,0.00,FEW,,0.00,777.0,WeatherDisplay:10.37,2013-04-15 16:35:00,
2013-04-15 12:40:00,55.4,36.5,30.32,North,0,0.0,0.0,49,0.00,FEW,,0.00,749.0,WeatherDisplay:10.37,2013-04-15 16:40:00,
2013-04-15 12:45:00,55.3,35.4,30.32,North,0,0.0,0.0,47,0.00,FEW,,0.00,636.0,WeatherDisplay:10.37,2013-04-15 16:45:00,
2013-04-15 12:50:00,55.5,35.0,30.33,North,0,0.0,0.0,46,0.00,SCT,,0.00,598.0,WeatherDisplay:10.37,2013-04-15 16:50:00,
2013-04-15 12:55:00,55.2,34.8,30.32,North,0,0.0,0.0,46,0.00,SCT,,0.00,645.0,WeatherDisplay:10.37,2013-04-15 16:55:00,
2013-04-15 13:00:00,55.1,34.7,30.32,North,0,0.0,0.0,46,0.00,SCT,,0.00,740.0,WeatherDisplay:10.37,2013-04-15 17:00:00,
2013-04-15 13:05:00,54.8,33.8,30.32,North,0,0.0,0.0,45,0.00,SCT,,0.00,577.0,WeatherDisplay:10.37,2013-04-15 17:05:00,
2013-04-15 13:10:00,54.8,34.9,30.32,North,0,0.0,0.0,47,0.00,SCT,,0.00,570.0,WeatherDisplay:10.37,2013-04-15 17:10:00,
2013-04-15 13:15:00,55.1,35.2,30.32,North,0,0.0,0.0,47,0.00,SCT,,0.00,548.0,WeatherDisplay:10.37,2013-04-15 17:15:00,
2013-04-15 13:21:00,55.0,34.0,30.32,North,0,0.0,0.0,45,0.00,SCT,,0.00,559.0,WeatherDisplay:10.37,2013-04-15 17:21:00,
2013-04-15 13:22:00,55.0,34.0,30.32,North,0,0.0,0.0,45,0.00,SCT,,0.00,559.0,WeatherDisplay:10.37,2013-04-15 17:22:00,
2013-04-15 13:23:00,54.8,34.4,30.32,North,0,0.0,0.0,46,0.00,SCT,,0.00,589.0,WeatherDisplay:10.37,2013-04-15 17:23:00,
2013-04-15 13:24:00,54.8,34.4,30.32,North,0,0.0,0.0,46,0.00,SCT,,0.00,617.0,WeatherDisplay:10.37,2013-04-15 17:24:00,
2013-04-15 13:29:00,55.3,35.4,30.32,North,0,0.0,0.0,47,0.00,SCT,,0.00,540.0,WeatherDisplay:10.37,2013-04-15 17:29:00,
2013-04-15 13:34:00,55.2,34.2,30.32,North,0,0.0,0.0,45,0.00,SCT,,0.00,613.0,WeatherDisplay:10.37,2013-04-15 17:34:00,
2013-04-15 13:39:00,55.8,36.4,30.32,North,0,0.0,0.0,48,0.00,SCT,,0.00,661.0,WeatherDisplay:10.37,2013-04-15 17:39:00,
2013-04-15 13:44:00,55.9,34.8,30.32,North,0,0.0,0.0,45,0.00,SCT,,0.00,628.0,WeatherDisplay:10.37,2013-04-15 17:44:00,
2013-04-15 13:49:00,56.1,33.9,30.31,North,0,0.0,0.0,43,0.00,SCT,,0.00,561.0,WeatherDisplay:10.37,2013-04-15 17:49:00,
2013-04-15 13:54:00,56.3,34.6,30.31,North,0,0.0,0.0,44,0.00,SCT,,0.00,473.0,WeatherDisplay:10.37,2013-04-15 17:54:00,
2013-04-15 13:59:00,56.7,34.4,30.31,North,0,0.0,0.0,43,0.00,SCT,,0.00,485.0,WeatherDisplay:10.37,2013-04-15 17:59:00,
2013-04-15 14:04:00,56.4,35.3,30.30,North,0,0.0,0.0,45,0.00,SCT,,0.00,461.0,WeatherDisplay:10.37,2013-04-15 18:04:00,
2013-04-15 14:09:00,57.0,35.3,30.31,North,0,0.0,0.0,44,0.00,BKN,,0.00,445.0,WeatherDisplay:10.37,2013-04-15 18:09:00,
2013-04-15 14:14:00,56.5,36.0,30.31,North,0,0.0,0.0,46,0.00,SCT,,0.00,517.0,WeatherDisplay:10.37,2013-04-15 18:14:00,
2013-04-15 14:19:00,56.2,35.7,30.31,North,0,0.0,0.0,46,0.00,SCT,,0.00,564.0,WeatherDisplay:10.37,2013-04-15 18:19:00,
2013-04-15 14:24:00,56.6,36.6,30.30,North,0,0.0,0.0,47,0.00,SCT,,0.00,589.0,WeatherDisplay:10.37,2013-04-15 18:24:00,
2013-04-15 14:29:00,56.8,35.7,30.30,North,0,0.0,0.0,45,0.00,FEW,,0.00,638.0,WeatherDisplay:10.37,2013-04-15 18:29:00,
2013-04-15 14:34:00,57.4,35.1,30.31,North,0,0.0,0.0,43,0.00,FEW,,0.00,708.0,WeatherDisplay:10.37,2013-04-15 18:34:00,
2013-04-15 14:39:00,57.2,35.5,30.31,North,0,0.0,0.0,44,0.00,FEW,,0.00,696.0,WeatherDisplay:10.37,2013-04-15 18:39:00,
2013-04-15 14:44:00,57.6,35.2,30.30,North,0,0.0,0.0,43,0.00,FEW,,0.00,677.0,WeatherDisplay:10.37,2013-04-15 18:44:00,
2013-04-15 14:49:00,57.7,37.0,30.30,North,0,0.0,0.0,46,0.00,FEW,,0.00,687.0,WeatherDisplay:10.37,2013-04-15 18:49:00,
2013-04-15 14:54:00,58.3,35.3,30.30,North,0,0.0,0.0,42,0.00,FEW,,0.00,689.0,WeatherDisplay:10.37,2013-04-15 18:54:00,
2013-04-15 14:59:00,57.8,36.0,30.30,North,0,0.0,0.0,44,0.00,FEW,,0.00,647.0,WeatherDisplay:10.37,2013-04-15 18:59:00,
2013-04-15 15:04:00,56.9,35.2,30.29,North,0,0.0,0.0,44,0.00,FEW,,0.00,628.0,WeatherDisplay:10.37,2013-04-15 19:04:00,
2013-04-15 15:09:00,57.8,36.0,30.29,North,0,0.0,0.0,44,0.00,FEW,,0.00,577.0,WeatherDisplay:10.37,2013-04-15 19:09:00,
2013-04-15 15:14:00,57.3,36.1,30.29,North,0,0.0,0.0,45,0.00,SCT,,0.00,501.0,WeatherDisplay:10.37,2013-04-15 19:14:00,
2013-04-15 15:19:00,57.0,35.9,30.28,North,0,0.0,0.0,45,0.00,SCT,,0.00,475.0,WeatherDisplay:10.37,2013-04-15 19:19:00,
2013-04-15 15:24:00,57.2,36.6,30.29,North,0,0.0,0.0,46,0.00,SCT,,0.00,494.0,WeatherDisplay:10.37,2013-04-15 19:24:00,
2013-04-15 15:29:00,57.7,35.3,30.29,North,0,0.0,0.0,43,0.00,SCT,,0.00,427.0,WeatherDisplay:10.37,2013-04-15 19:29:00,
2013-04-15 15:35:00,57.9,36.7,30.28,North,0,0.0,0.0,45,0.00,SCT,,0.00,417.0,WeatherDisplay:10.37,2013-04-15 19:35:00,
2013-04-15 15:40:00,57.9,35.5,30.28,North,0,0.0,0.0,43,0.00,SCT,,0.00,464.0,WeatherDisplay:10.37,2013-04-15 19:40:00,
2013-04-15 15:47:00,57.6,35.2,30.28,North,0,0.0,0.0,43,0.00,SCT,,0.00,459.0,WeatherDisplay:10.37,2013-04-15 19:47:00,
2013-04-15 15:53:00,57.0,35.9,30.28,North,0,0.0,0.0,45,0.00,SCT,,0.00,480.0,WeatherDisplay:10.37,2013-04-15 19:53:00,
2013-04-15 15:57:00,57.4,35.6,30.27,North,0,0.0,0.0,44,0.00,FEW,,0.00,436.0,WeatherDisplay:10.37,2013-04-15 19:57:00,
2013-04-15 15:58:00,57.4,36.2,30.27,North,0,0.0,0.0,45,0.00,FEW,,0.00,397.0,WeatherDisplay:10.37,2013-04-15 19:58:00,
2013-04-15 16:02:00,57.9,36.7,30.28,North,0,0.0,0.0,45,0.00,SCT,,0.00,455.0,WeatherDisplay:10.37,2013-04-15 20:02:00,
2013-04-15 16:03:00,58.0,36.2,30.28,North,0,0.0,0.0,44,0.00,SCT,,0.00,494.0,WeatherDisplay:10.37,2013-04-15 20:03:00,
2013-04-15 16:08:00,57.6,35.8,30.27,North,0,0.0,0.0,44,0.00,FEW,,0.00,480.0,WeatherDisplay:10.37,2013-04-15 20:08:00,
2013-04-15 16:13:00,58.0,36.2,30.27,North,0,0.0,0.0,44,0.00,FEW,,0.00,357.0,WeatherDisplay:10.37,2013-04-15 20:13:00,
2013-04-15 16:18:00,58.1,36.3,30.26,North,0,0.0,0.0,44,0.00,FEW,,0.00,524.0,WeatherDisplay:10.37,2013-04-15 20:18:00,
2013-04-15 16:23:00,58.3,35.9,30.26,North,0,0.0,0.0,43,0.00,CLR,,0.00,454.0,WeatherDisplay:10.37,2013-04-15 20:23:00,
2013-04-15 16:28:00,58.0,36.2,30.27,North,0,0.0,0.0,44,0.00,FEW,,0.00,311.0,WeatherDisplay:10.37,2013-04-15 20:28:00,
2013-04-15 16:33:00,57.9,35.5,30.27,North,0,0.0,0.0,43,0.00,SCT,,0.00,406.0,WeatherDisplay:10.37,2013-04-15 20:33:00,
2013-04-15 16:38:00,58.3,37.0,30.26,North,0,0.0,0.0,45,0.00,BKN,,0.00,169.0,WeatherDisplay:10.37,2013-04-15 20:38:00,
2013-04-15 16:43:00,58.8,36.3,30.26,North,0,0.0,0.0,43,0.00,SCT,,0.00,241.0,WeatherDisplay:10.37,2013-04-15 20:43:00,
2013-04-15 16:48:00,58.9,38.1,30.26,North,0,0.0,0.0,46,0.00,SCT,,0.00,322.0,WeatherDisplay:10.37,2013-04-15 20:48:00,
2013-04-15 16:53:00,58.4,37.1,30.26,North,0,0.0,0.0,45,0.00,SCT,,0.00,257.0,WeatherDisplay:10.37,2013-04-15 20:53:00,
2013-04-15 16:58:00,57.8,37.1,30.26,North,0,0.0,0.0,46,0.00,SCT,,0.00,295.0,WeatherDisplay:10.37,2013-04-15 20:58:00,
2013-04-15 17:03:00,57.5,37.4,30.27,North,0,0.0,0.0,47,0.00,SCT,,0.00,179.0,WeatherDisplay:10.37,2013-04-15 21:03:00,
2013-04-15 17:08:00,57.5,37.4,30.27,North,0,0.0,0.0,47,0.00,SCT,,0.00,281.0,WeatherDisplay:10.37,2013-04-15 21:08:00,
2013-04-15 17:13:00,57.4,36.8,30.27,North,0,0.0,0.0,46,0.00,SCT,,0.00,188.0,WeatherDisplay:10.37,2013-04-15 21:13:00,
2013-04-15 17:18:00,57.1,36.5,30.27,North,0,0.0,0.0,46,0.00,SCT,,0.00,227.0,WeatherDisplay:10.37,2013-04-15 21:18:00,
2013-04-15 17:23:00,56.9,37.4,30.27,North,0,0.0,0.0,48,0.00,SCT,,0.00,153.0,WeatherDisplay:10.37,2013-04-15 21:23:00,
2013-04-15 17:28:00,56.7,37.2,30.27,North,0,0.0,0.0,48,0.00,SCT,,0.00,151.0,WeatherDisplay:10.37,2013-04-15 21:28:00,
2013-04-15 17:33:00,56.5,37.6,30.27,North,0,0.0,0.0,49,0.00,SCT,,0.00,204.0,WeatherDisplay:10.37,2013-04-15 21:33:00,
2013-04-15 17:38:00,56.5,38.1,30.27,North,0,0.0,0.0,50,0.00,SCT,,0.00,179.0,WeatherDisplay:10.37,2013-04-15 21:38:00,
2013-04-15 17:43:00,56.2,37.3,30.28,North,0,0.0,0.0,49,0.00,SCT,,0.00,116.0,WeatherDisplay:10.37,2013-04-15 21:43:00,
2013-04-15 17:48:00,55.8,37.9,30.27,North,0,0.0,0.0,51,0.00,BKN,,0.00,132.0,WeatherDisplay:10.37,2013-04-15 21:48:00,
2013-04-15 17:53:00,55.6,37.2,30.28,North,0,0.0,0.0,50,0.00,BKN,,0.00,88.0,WeatherDisplay:10.37,2013-04-15 21:53:00,
2013-04-15 17:58:00,55.3,37.5,30.28,North,0,0.0,0.0,51,0.00,BKN,,0.00,70.0,WeatherDisplay:10.37,2013-04-15 21:58:00,
2013-04-15 18:03:00,55.1,37.3,30.28,North,0,0.0,0.0,51,0.00,BKN,,0.00,100.0,WeatherDisplay:10.37,2013-04-15 22:03:00,
2013-04-15 18:08:00,55.0,37.2,30.28,North,0,0.0,0.0,51,0.00,BKN,,0.00,54.0,WeatherDisplay:10.37,2013-04-15 22:08:00,
2013-04-15 18:13:00,54.8,37.0,30.29,North,0,0.0,0.0,51,0.00,BKN,,0.00,40.0,WeatherDisplay:10.37,2013-04-15 22:13:00,
2013-04-15 18:18:00,54.6,36.8,30.28,North,0,0.0,0.0,51,0.00,BKN,,0.00,33.0,WeatherDisplay:10.37,2013-04-15 22:18:00,
2013-04-15 18:23:00,54.4,37.1,30.29,North,0,0.0,0.0,52,0.00,BKN,,0.00,30.0,WeatherDisplay:10.37,2013-04-15 22:23:00,
2013-04-15 18:28:00,54.0,36.3,30.29,North,0,0.0,0.0,51,0.00,BKN,,0.00,26.0,WeatherDisplay:10.37,2013-04-15 22:28:00,
2013-04-15 18:33:00,53.7,36.0,30.29,North,0,0.0,0.0,51,0.00,BKN,,0.00,25.0,WeatherDisplay:10.37,2013-04-15 22:33:00,
2013-04-15 18:38:00,53.4,36.2,30.29,North,0,0.0,0.0,52,0.00,BKN,,0.00,23.0,WeatherDisplay:10.37,2013-04-15 22:38:00,
2013-04-15 18:43:00,53.1,36.4,30.29,North,0,0.0,0.0,53,0.00,BKN,,0.00,21.0,WeatherDisplay:10.37,2013-04-15 22:43:00,
2013-04-15 18:48:00,52.9,36.7,30.30,North,0,0.0,0.0,54,0.00,BKN,,0.00,18.0,WeatherDisplay:10.37,2013-04-15 22:48:00,
2013-04-15 18:53:00,52.6,36.4,30.30,North,0,0.0,0.0,54,0.00,BKN,,0.00,16.0,WeatherDisplay:10.37,2013-04-15 22:53:00,
2013-04-15 18:58:00,52.4,37.2,30.30,North,0,0.0,0.0,56,0.00,BKN,,0.00,16.0,WeatherDisplay:10.37,2013-04-15 22:58:00,
2013-04-15 19:03:00,52.1,36.9,30.30,North,0,0.0,0.0,56,0.00,BKN,,0.00,14.0,WeatherDisplay:10.37,2013-04-15 23:03:00,
2013-04-15 19:08:00,51.7,36.9,30.31,North,0,0.0,0.0,57,0.00,BKN,,0.00,11.0,WeatherDisplay:10.37,2013-04-15 23:08:00,
2013-04-15 19:13:00,51.3,36.6,30.31,North,0,0.0,0.0,57,0.00,BKN,,0.00,7.0,WeatherDisplay:10.37,2013-04-15 23:13:00,
2013-04-15 19:18:00,51.0,35.8,30.32,North,0,0.0,0.0,56,0.00,BKN,,0.00,5.0,WeatherDisplay:10.37,2013-04-15 23:18:00,
2013-04-15 19:23:00,50.6,35.5,30.32,North,0,0.0,0.0,56,0.00,OVC,,0.00,0.0,WeatherDisplay:10.37,2013-04-15 23:23:00,
2013-04-15 19:28:00,50.3,35.2,30.33,North,0,0.0,0.0,56,0.00,OVC,,0.00,0.0,WeatherDisplay:10.37,2013-04-15 23:28:00,
2013-04-15 19:33:00,50.1,35.0,30.33,North,0,0.0,0.0,56,0.00,OVC,,0.00,0.0,WeatherDisplay:10.37,2013-04-15 23:33:00,
2013-04-15 19:38:00,49.7,34.6,30.33,North,0,0.0,0.0,56,0.00,OVC,,0.00,0.0,WeatherDisplay:10.37,2013-04-15 23:38:00,
2013-04-15 19:43:00,49.4,34.8,30.34,North,0,0.0,0.0,57,0.00,OVC,,0.00,0.0,WeatherDisplay:10.37,2013-04-15 23:43:00,
2013-04-15 19:48:00,49.2,34.6,30.34,North,0,0.0,0.0,57,0.00,OVC,,0.00,0.0,WeatherDisplay:10.37,2013-04-15 23:48:00,
2013-04-15 19:53:00,48.9,34.8,30.34,North,0,0.0,0.0,58,0.00,OVC,,0.00,0.0,WeatherDisplay:10.37,2013-04-15 23:53:00,
2013-04-15 19:58:00,48.7,34.6,30.34,North,0,0.0,0.0,58,0.00,CLR,,0.00,0.0,WeatherDisplay:10.37,2013-04-15 23:58:00,
2013-04-15 20:03:00,48.4,34.7,30.34,North,0,0.0,0.0,59,0.00,CLR,,0.00,0.0,WeatherDisplay:10.37,2013-04-16 00:03:00,
2013-04-15 20:08:00,48.2,34.5,30.34,North,0,0.0,0.0,59,0.00,CLR,,0.00,0.0,WeatherDisplay:10.37,2013-04-16 00:08:00,
2013-04-15 20:13:00,48.1,34.9,30.34,North,0,0.0,0.0,60,0.00,CLR,,0.00,0.0,WeatherDisplay:10.37,2013-04-16 00:13:00,
2013-04-15 20:18:00,47.8,35.0,30.34,North,0,0.0,0.0,61,0.00,CLR,,0.00,0.0,WeatherDisplay:10.37,2013-04-16 00:18:00,
2013-04-15 20:23:00,47.5,35.1,30.33,North,0,0.0,0.0,62,0.00,CLR,,0.00,0.0,WeatherDisplay:10.37,2013-04-16 00:23:00,
2013-04-15 20:28:00,47.3,35.7,30.33,North,0,0.0,0.0,64,0.00,CLR,,0.00,0.0,WeatherDisplay:10.37,2013-04-16 00:28:00,
2013-04-15 20:33:00,47.0,35.8,30.33,North,0,0.0,0.0,65,0.00,CLR,,0.00,0.0,WeatherDisplay:10.37,2013-04-16 00:33:00,
2013-04-15 20:38:00,46.8,36.0,30.33,North,0,0.0,0.0,66,0.00,CLR,,0.00,0.0,WeatherDisplay:10.37,2013-04-16 00:38:00,
2013-04-15 20:43:00,46.7,35.9,30.33,North,0,0.0,0.0,66,0.00,CLR,,0.00,0.0,WeatherDisplay:10.37,2013-04-16 00:43:00,
2013-04-15 20:48:00,46.4,36.0,30.33,North,0,0.0,0.0,67,0.00,CLR,,0.00,0.0,WeatherDisplay:10.37,2013-04-16 00:48:00,
2013-04-15 20:53:00,46.2,36.2,30.33,North,0,0.0,0.0,68,0.00,CLR,,0.00,0.0,WeatherDisplay:10.37,2013-04-16 00:53:00,
2013-04-15 20:58:00,46.0,36.0,30.33,North,0,0.0,0.0,68,0.00,CLR,,0.00,0.0,WeatherDisplay:10.37,2013-04-16 00:58:00,
2013-04-15 21:03:00,45.8,36.2,30.34,North,0,0.0,0.0,69,0.00,CLR,,0.00,0.0,WeatherDisplay:10.37,2013-04-16 01:03:00,
2013-04-15 21:08:00,45.6,36.0,30.34,North,0,0.0,0.0,69,0.00,CLR,,0.00,0.0,WeatherDisplay:10.37,2013-04-16 01:08:00,
2013-04-15 21:13:00,45.4,36.2,30.35,North,0,0.0,0.0,70,0.00,CLR,,0.00,0.0,WeatherDisplay:10.37,2013-04-16 01:13:00,
2013-04-15 21:18:00,45.2,36.0,30.35,North,0,0.0,0.0,70,0.00,CLR,,0.00,0.0,WeatherDisplay:10.37,2013-04-16 01:18:00,
2013-04-15 21:23:00,45.0,36.2,30.36,North,0,0.0,0.0,71,0.00,CLR,,0.00,0.0,WeatherDisplay:10.37,2013-04-16 01:23:00,
2013-04-15 21:28:00,44.9,36.1,30.35,North,0,0.0,0.0,71,0.00,CLR,,0.00,0.0,WeatherDisplay:10.37,2013-04-16 01:28:00,
2013-04-15 21:33:00,44.7,35.9,30.35,North,0,0.0,0.0,71,0.00,CLR,,0.00,0.0,WeatherDisplay:10.37,2013-04-16 01:33:00,
2013-04-15 21:38:00,44.6,35.8,30.35,North,0,0.0,0.0,71,0.00,CLR,,0.00,0.0,WeatherDisplay:10.37,2013-04-16 01:38:00,
2013-04-15 21:43:00,44.5,36.0,30.35,North,0,0.0,0.0,72,0.00,CLR,,0.00,0.0,WeatherDisplay:10.37,2013-04-16 01:43:00,
2013-04-15 21:48:00,44.3,35.8,30.35,North,0,0.0,0.0,72,0.00,CLR,,0.00,0.0,WeatherDisplay:10.37,2013-04-16 01:48:00,
2013-04-15 21:53:00,44.2,35.7,30.36,North,0,0.0,0.0,72,0.00,CLR,,0.00,0.0,WeatherDisplay:10.37,2013-04-16 01:53:00,
2013-04-15 21:58:00,44.1,36.0,30.36,North,0,0.0,0.0,73,0.00,CLR,,0.00,0.0,WeatherDisplay:10.37,2013-04-16 01:58:00,
2013-04-15 22:03:00,44.0,35.9,30.36,North,0,0.0,0.0,73,0.00,CLR,,0.00,0.0,WeatherDisplay:10.37,2013-04-16 02:03:00,
2013-04-15 22:08:00,43.9,35.8,30.36,North,0,0.0,0.0,73,0.00,CLR,,0.00,0.0,WeatherDisplay:10.37,2013-04-16 02:08:00,
2013-04-15 22:13:00,43.8,36.0,30.36,North,0,0.0,0.0,74,0.00,CLR,,0.00,0.0,WeatherDisplay:10.37,2013-04-16 02:13:00,
2013-04-15 22:18:00,43.7,36.0,30.36,North,0,0.0,0.0,74,0.00,CLR,,0.00,0.0,WeatherDisplay:10.37,2013-04-16 02:18:00,
2013-04-15 22:23:00,43.6,36.2,30.36,North,0,0.0,0.0,75,0.00,CLR,,0.00,0.0,WeatherDisplay:10.37,2013-04-16 02:23:00,
2013-04-15 22:28:00,43.5,36.1,30.36,North,0,0.0,0.0,75,0.00,CLR,,0.00,0.0,WeatherDisplay:10.37,2013-04-16 02:28:00,
2013-04-15 22:33:00,43.4,36.3,30.36,North,0,0.0,0.0,76,0.00,CLR,,0.00,0.0,WeatherDisplay:10.37,2013-04-16 02:33:00,
2013-04-15 22:38:00,43.3,36.6,30.36,North,0,0.0,0.0,77,0.00,CLR,,0.00,0.0,WeatherDisplay:10.37,2013-04-16 02:38:00,
2013-04-15 22:43:00,43.1,36.4,30.36,North,0,0.0,0.0,77,0.00,CLR,,0.00,0.0,WeatherDisplay:10.37,2013-04-16 02:43:00,
2013-04-15 22:48:00,43.1,36.7,30.36,North,0,0.0,0.0,78,0.00,CLR,,0.00,0.0,WeatherDisplay:10.37,2013-04-16 02:48:00,
2013-04-15 22:53:00,42.9,36.5,30.36,North,0,0.0,0.0,78,0.00,CLR,,0.00,0.0,WeatherDisplay:10.37,2013-04-16 02:53:00,
2013-04-15 22:58:00,42.8,36.7,30.36,North,0,0.0,0.0,79,0.00,CLR,,0.00,0.0,WeatherDisplay:10.37,2013-04-16 02:58:00,
2013-04-15 23:03:00,42.7,36.6,30.36,North,0,0.0,0.0,79,0.00,CLR,,0.00,0.0,WeatherDisplay:10.37,2013-04-16 03:03:00,
2013-04-15 23:08:00,42.6,36.5,30.36,North,0,0.0,0.0,79,0.00,CLR,,0.00,0.0,WeatherDisplay:10.37,2013-04-16 03:08:00,
2013-04-15 23:13:00,42.5,36.4,30.36,North,0,0.0,0.0,79,0.00,CLR,,0.00,0.0,WeatherDisplay:10.37,2013-04-16 03:13:00,
2013-04-15 23:18:00,42.3,36.6,30.36,North,0,0.0,0.0,80,0.00,CLR,,0.00,0.0,WeatherDisplay:10.37,2013-04-16 03:18:00,
2013-04-15 23:23:00,42.2,36.5,30.36,North,0,0.0,0.0,80,0.00,CLR,,0.00,0.0,WeatherDisplay:10.37,2013-04-16 03:23:00,
2013-04-15 23:28:00,42.1,36.4,30.37,North,0,0.0,0.0,80,0.00,CLR,,0.00,0.0,WeatherDisplay:10.37,2013-04-16 03:28:00,
2013-04-15 23:33:00,42.0,36.6,30.36,North,0,0.0,0.0,81,0.00,CLR,,0.00,0.0,WeatherDisplay:10.37,2013-04-16 03:33:00,
2013-04-15 23:38:00,41.9,36.5,30.36,North,0,0.0,0.0,81,0.00,CLR,,0.00,0.0,WeatherDisplay:10.37,2013-04-16 03:38:00,
2013-04-15 23:43:00,41.8,36.4,30.36,North,0,0.0,0.0,81,0.00,CLR,,0.00,0.0,WeatherDisplay:10.37,2013-04-16 03:43:00,
2013-04-15 23:48:00,41.7,36.3,30.36,North,0,0.0,0.0,81,0.00,CLR,,0.00,0.0,WeatherDisplay:10.37,2013-04-16 03:48:00,
2013-04-15 23:53:00,41.6,36.5,30.36,North,0,0.0,0.0,82,0.00,CLR,,0.00,0.0,WeatherDisplay:10.37,2013-04-16 03:53:00,
2013-04-15 23:58:00,41.5,36.4,30.36,North,0,0.0,0.0,82,0.00,CLR,,0.00,0.0,WeatherDisplay:10.37,2013-04-16 03:58:00,